When you browse on this site, cookies collect data to enhance your experience and personalize the content and advertising you see.
Visit our Privacy Policy to learn more. By continuing to use the site, you agree to this use of cookies and data.
  • In Österreich
  • Länderverzeichnis
  • Für 7 Tage
  • Wassertemperatur
  • Wetterkarte
  • News
  • Widgets
  • user-avatar
    Anmelden

    Stündliche Wetter Vila-Real

    Heute, 3 April, Freitag

    Zeit Temperatur Niederschläge Wind Luftdruck Luftfeuchtigkeit
    00:00 +9°C° 0 mm 1 m/S 720 mmHg 86%
    01:00 +9°C° 0 mm 1 m/S 720 mmHg 87%
    02:00 +9°C° 0 mm 1 m/S 720 mmHg 88%
    03:00 +8°C° 0 mm 1 m/S 720 mmHg 88%
    04:00 +8°C° 0 mm 1 m/S 720 mmHg 89%
    05:00 +7°C° 0 mm 1 m/S 720 mmHg 89%
    06:00 +9°C° 0 mm 1 m/S 720 mmHg 82%
    07:00 +10°C° 0 mm 1 m/S 720 mmHg 74%
    08:00 +12°C° 0 mm 1 m/S 721 mmHg 67%
    09:00 +14°C° 0 mm 1 m/S 720 mmHg 61%
    10:00 +16°C° 0 mm 1 m/S 720 mmHg 55%
    11:00 +19°C° 0 mm 1 m/S 720 mmHg 48%
    12:00 +19°C° 0 mm 1 m/S 720 mmHg 46%
    13:00 +19°C° 0 mm 2 m/S 720 mmHg 43%
    14:00 +19°C° 0 mm 2 m/S 719 mmHg 41%
    15:00 +18°C° 0 mm 2 m/S 719 mmHg 45%
    16:00 +18°C° 0 mm 1 m/S 719 mmHg 48%
    17:00 +18°C° 0 mm 1 m/S 718 mmHg 52%
    18:00 +15°C° 0 mm 1 m/S 719 mmHg 55%
    19:00 +13°C° 0 mm 1 m/S 719 mmHg 58%
    20:00 +12°C° 0 mm 1 m/S 719 mmHg 61%
    21:00 +11°C° 0 mm 1 m/S 719 mmHg 63%
    22:00 +11°C° 0 mm 1 m/S 719 mmHg 65%
    23:00 +10°C° 0 mm 1 m/S 719 mmHg 67%

    Morgen, 4 April, Samstag

    Zeit Temperatur Niederschläge Wind Luftdruck Luftfeuchtigkeit
    00:00 +10°C° 0 mm 1 m/S 719 mmHg 70%
    01:00 +9°C° 0 mm 1 m/S 718 mmHg 72%
    02:00 +9°C° 0 mm 1 m/S 718 mmHg 75%
    03:00 +9°C° 0 mm 1 m/S 718 mmHg 76%
    04:00 +7°C° 0 mm 2 m/S 718 mmHg 78%
    05:00 +7°C° 0 mm 2 m/S 718 mmHg 80%
    06:00 +9°C° 0 mm 2 m/S 718 mmHg 73%
    07:00 +12°C° 0 mm 2 m/S 718 mmHg 66%
    08:00 +14°C° 0 mm 2 m/S 718 mmHg 59%
    09:00 +14°C° 0 mm 3 m/S 718 mmHg 55%
    10:00 +16°C° 0 mm 5 m/S 718 mmHg 52%
    11:00 +17°C° 0 mm 6 m/S 718 mmHg 48%
    12:00 +17°C° 0 mm 6 m/S 718 mmHg 48%
    13:00 +17°C° 0 mm 6 m/S 717 mmHg 49%
    14:00 +17°C° 0 mm 6 m/S 717 mmHg 49%
    15:00 +16°C° 0 mm 5 m/S 717 mmHg 53%
    16:00 +15°C° 0 mm 4 m/S 717 mmHg 57%
    17:00 +14°C° 0 mm 3 m/S 717 mmHg 61%
    18:00 +14°C° 0 mm 2 m/S 717 mmHg 65%
    19:00 +13°C° 0 mm 2 m/S 718 mmHg 70%
    20:00 +12°C° 0 mm 2 m/S 718 mmHg 74%
    21:00 +12°C° 0 mm 2 m/S 718 mmHg 77%
    22:00 +10°C° 0 mm 2 m/S 718 mmHg 80%
    23:00 +10°C° 0 mm 2 m/S 717 mmHg 83%

    übermorgen, 5 April, Sonntag

    Zeit Temperatur Niederschläge Wind Luftdruck Luftfeuchtigkeit
    00:00 +10°C° 0.1 mm 2 m/S 717 mmHg 84%
    01:00 +10°C° 0.1 mm 2 m/S 717 mmHg 85%
    02:00 +10°C° 0.1 mm 2 m/S 717 mmHg 86%
    03:00 +11°C° 0.2 mm 1 m/S 717 mmHg 88%
    04:00 +11°C° 0.2 mm 1 m/S 717 mmHg 89%
    05:00 +11°C° 0.2 mm 1 m/S 717 mmHg 91%
    06:00 +12°C° 0.1 mm 2 m/S 717 mmHg 88%
    07:00 +13°C° 0.1 mm 2 m/S 717 mmHg 85%
    08:00 +14°C° 0.1 mm 2 m/S 717 mmHg 83%
    09:00 +13°C° 0.1 mm 3 m/S 717 mmHg 83%
    10:00 +13°C° 0.1 mm 3 m/S 717 mmHg 83%
    11:00 +13°C° 0.1 mm 3 m/S 717 mmHg 82%
    12:00 +13°C° 2.3 mm 3 m/S 717 mmHg 86%
    13:00 +14°C° 2.3 mm 2 m/S 717 mmHg 89%
    14:00 +13°C° 2.3 mm 2 m/S 717 mmHg 92%
    15:00 +13°C° 1.8 mm 2 m/S 717 mmHg 93%
    16:00 +13°C° 1.8 mm 1 m/S 717 mmHg 95%
    17:00 +13°C° 1.8 mm 1 m/S 717 mmHg 96%
    18:00 +13°C° 0.4 mm 1 m/S 718 mmHg 96%
    19:00 +13°C° 0.4 mm 1 m/S 718 mmHg 96%
    20:00 +13°C° 0.4 mm 1 m/S 719 mmHg 96%
    21:00 +13°C° 0.1 mm 1 m/S 719 mmHg 96%
    22:00 +12°C° 0.1 mm 1 m/S 720 mmHg 96%
    23:00 +12°C° 0.1 mm 1 m/S 720 mmHg 96%

    6 April, Montag

    Zeit Temperatur Niederschläge Wind Luftdruck Luftfeuchtigkeit
    00:00 +11°C° 0 mm 1 m/S 720 mmHg 96%
    01:00 +11°C° 0 mm 1 m/S 720 mmHg 96%
    02:00 +11°C° 0 mm 1 m/S 721 mmHg 95%
    03:00 +10°C° 0 mm 1 m/S 721 mmHg 95%
    04:00 +10°C° 0 mm 1 m/S 721 mmHg 95%
    05:00 +9°C° 0 mm 0 m/S 722 mmHg 95%
    06:00 +10°C° 0 mm 0 m/S 722 mmHg 89%
    07:00 +12°C° 0 mm 0 m/S 723 mmHg 83%
    08:00 +13°C° 0 mm 0 m/S 723 mmHg 77%
    09:00 +15°C° 0 mm 1 m/S 724 mmHg 69%
    10:00 +16°C° 0 mm 1 m/S 724 mmHg 61%
    11:00 +17°C° 0 mm 2 m/S 724 mmHg 53%
    12:00 +18°C° 0 mm 2 m/S 724 mmHg 52%
    13:00 +18°C° 0 mm 2 m/S 724 mmHg 52%
    14:00 +18°C° 0 mm 3 m/S 724 mmHg 52%
    15:00 +17°C° 0 mm 2 m/S 724 mmHg 56%
    16:00 +17°C° 0 mm 2 m/S 724 mmHg 60%
    17:00 +16°C° 0 mm 1 m/S 724 mmHg 64%
    18:00 +15°C° 0 mm 1 m/S 724 mmHg 69%
    19:00 +13°C° 0 mm 1 m/S 725 mmHg 73%
    20:00 +11°C° 0 mm 0 m/S 725 mmHg 77%
    21:00 +11°C° 0 mm 0 m/S 725 mmHg 78%
    22:00 +10°C° 0 mm 0 m/S 725 mmHg 79%
    23:00 +10°C° 0 mm 0 m/S 726 mmHg 80%

    7 April, Dienstag

    Zeit Temperatur Niederschläge Wind Luftdruck Luftfeuchtigkeit
    00:00 +11°C° 0 mm 1 m/S 726 mmHg 80%
    01:00 +11°C° 0 mm 1 m/S 725 mmHg 81%
    02:00 +10°C° 0 mm 1 m/S 725 mmHg 82%
    03:00 +10°C° 0 mm 1 m/S 725 mmHg 84%
    04:00 +10°C° 0 mm 1 m/S 725 mmHg 86%
    05:00 +10°C° 0 mm 1 m/S 725 mmHg 88%
    06:00 +12°C° 0 mm 1 m/S 726 mmHg 81%
    07:00 +13°C° 0 mm 1 m/S 726 mmHg 74%
    08:00 +15°C° 0 mm 1 m/S 726 mmHg 68%
    09:00 +18°C° 0 mm 1 m/S 726 mmHg 62%
    10:00 +20°C° 0 mm 1 m/S 726 mmHg 57%
    11:00 +21°C° 0 mm 1 m/S 726 mmHg 52%
    12:00 +22°C° 0 mm 1 m/S 726 mmHg 51%
    13:00 +22°C° 0 mm 1 m/S 726 mmHg 50%
    14:00 +23°C° 0 mm 1 m/S 726 mmHg 49%
    15:00 +22°C° 0.1 mm 1 m/S 725 mmHg 54%
    16:00 +21°C° 0.1 mm 1 m/S 725 mmHg 60%
    17:00 +20°C° 0.1 mm 1 m/S 725 mmHg 65%
    18:00 +18°C° 0 mm 1 m/S 725 mmHg 70%
    19:00 +15°C° 0 mm 0 m/S 725 mmHg 75%
    20:00 +14°C° 0 mm 0 m/S 726 mmHg 79%
    21:00 +13°C° 0 mm 0 m/S 726 mmHg 80%
    22:00 +13°C° 0 mm 0 m/S 726 mmHg 80%
    23:00 +13°C° 0 mm 0 m/S 726 mmHg 81%

    8 April, Mittwoch

    Zeit Temperatur Niederschläge Wind Luftdruck Luftfeuchtigkeit
    00:00 +13°C° 0 mm 0 m/S 725 mmHg 81%
    01:00 +12°C° 0 mm 0 m/S 725 mmHg 82%
    02:00 +12°C° 0 mm 0 m/S 725 mmHg 83%
    03:00 +12°C° 0 mm 0 m/S 725 mmHg 82%
    04:00 +13°C° 0 mm 1 m/S 725 mmHg 82%
    05:00 +13°C° 0 mm 1 m/S 725 mmHg 81%
    06:00 +14°C° 0.1 mm 1 m/S 725 mmHg 82%
    07:00 +14°C° 0.1 mm 1 m/S 725 mmHg 82%
    08:00 +14°C° 0.1 mm 1 m/S 725 mmHg 83%
    09:00 +13°C° 0.7 mm 0 m/S 725 mmHg 86%
    10:00 +13°C° 0.7 mm 0 m/S 725 mmHg 88%
    11:00 +13°C° 0.7 mm 0 m/S 725 mmHg 91%
    12:00 +13°C° 0.7 mm 0 m/S 725 mmHg 92%
    13:00 +13°C° 0.7 mm 0 m/S 725 mmHg 92%
    14:00 +14°C° 0.7 mm 1 m/S 725 mmHg 93%
    15:00 +13°C° 0.1 mm 0 m/S 725 mmHg 93%
    16:00 +13°C° 0.1 mm 0 m/S 725 mmHg 93%
    17:00 +13°C° 0.1 mm 0 m/S 724 mmHg 94%
    18:00 +13°C° 0 mm 0 m/S 724 mmHg 94%
    19:00 +12°C° 0 mm 0 m/S 725 mmHg 94%
    20:00 +12°C° 0 mm 0 m/S 725 mmHg 94%
    21:00 +12°C° 0 mm 0 m/S 725 mmHg 94%
    22:00 +12°C° 0 mm 0 m/S 725 mmHg 94%
    23:00 +12°C° 0 mm 0 m/S 725 mmHg 93%
    Mehr zeigen